Погода в Лоо

Россия / Краснодарский край     43°42′17″N   39°35′02″E
темп.,
°C
ветер,
м/с
пор.,
м/с
влажн.,
%
обл.,
%
осадки,
мм/ч
давл.,
гПа
погр.,
м
19 апреля, пн
пн1900:00+13вюв2295100 0.6 101738
03:00+13вюв61093100 1.3 1016198
06:00+13юз2297100 2.8 101630
09:00+14юв3697100 7.5 1016152
12:00+15вюв2286100 0.4 101523
15:00+16сз138399 0.8 1014318
18:00+16св1188100 0.4 101415
21:00+16св4383100 0.4 101233
20 апреля, вт
вт2000:00+14ссз0190100 0.1 101217
03:00+14ссв2288100 0.2 100724
06:00+15в3376100 0.0 100234
09:00+15ссз3580100 0.2 1007191
12:00+16юз217624 0.3 1008380
15:00+14зсз568179 0.6 1011315
18:00+13юв1181100 0.0 101424
21:00+12ююв3489100 0.2 1016134
21 апреля, ср
ср2100:00+11вюв118698 0.5 101631
03:00+10зюз1290100 0.6 1017130
06:00+11ссз2291100 0.0 101790
09:00+12сз2380100 0.0 1018234
12:00+14зсз566893 0.0 1019658
15:00+14зсз55665 0.0 1020547
18:00+12зсз44755 0.0 1020161
21:00+10ссз3379100 0.0 102148
22 апреля, чт
чт2200:00+10ссз2274100 0.0 102152
03:00+10ссз2372100 0.0 102168
06:00+9с22724 0.0 102150
09:00+13з22624 0.0 1022291
12:00+13з3362100 0.0 1022464
15:00+13зсз4566100 0.0 1021344
18:00+12сз577826 0.0 1021245
21:00+11с22881 0.1 102236
23 апреля, пт
пт2300:00+10вюв56910 0.2 1023210
03:00+9вюв34892 0.3 1024193
06:00+9в34870 0.0 1024166
09:00+12ююв45837 0.0 1025455
12:00+13ю44780 0.0 1025496
15:00+13ю22750 0.0 1023359
18:00+12з11785 0.0 1023115
21:00+11св118499 0.0 102213